GW7188 Weather Reports


time (UTC)temp
C
wind
direction
speed
KPH
gust
KPH
rain 1hr
cm
rain 24hr
cm
rain mn
cm
humidity
%
barometer
mb
20260906181330 37 45 3.2 9.7 0.00 0.00 0.00 39 1014.7
20260906180830 37 22 3.2 8.0 0.00 0.00 0.00 39 1014.9
20260906180329 37 184 3.2 9.7 0.00 0.00 0.00 40 1015.1
20260906175829 37 29 3.2 4.8 0.00 0.00 0.00 39 1015.2
20260906175329 37 119 3.2 4.8 0.00 0.00 0.00 41 1015.2
20260906174829 36 342 3.2 3.2 0.00 0.00 0.00 42 1015.2
20260906174329 36 124 3.2 6.4 0.00 0.00 0.00 44 1015.3
20260906173829 36 133 3.2 4.8 0.00 0.00 0.00 44 1015.4
20260906173329 36 128 3.2 4.8 0.00 0.00 0.00 43 1015.5
20260906172829 36 218 4.8 12.9 0.00 0.00 0.00 43 1015.6
20260906172329 37 246 4.8 14.5 0.00 0.00 0.00 43 1015.6
20260906171829 37 151 3.2 6.4 0.00 0.00 0.00 42 1015.7
20260906171329 36 85 3.2 4.8 0.00 0.00 0.00 44 1015.8
20260906170830 36 228 0.0 1.6 0.00 0.00 0.00 43 1016.0
20260906170329 36 122 1.6 4.8 0.00 0.00 0.00 45 1016.0
20260906165829 36 161 0.0 3.2 0.00 0.00 0.00 44 1016.0
20260906165329 36 154 3.2 6.4 0.00 0.00 0.00 44 1016.0
20260906164829 35 34 3.2 6.4 0.00 0.00 0.00 45 1016.0
20260906164329 35 138 3.2 6.4 0.00 0.00 0.00 46 1016.1
20260906163830 35 142 3.2 8.0 0.00 0.00 0.00 48 1016.2
20260906163329 35 139 0.0 6.4 0.00 0.00 0.00 46 1016.2
20260906162830 35 148 1.6 6.4 0.00 0.00 0.00 48 1016.1
20260906162329 35 99 1.6 4.8 0.00 0.00 0.00 46 1016.1
20260906161829 35 114 1.6 8.0 0.00 0.00 0.00 47 1016.2
20260906161329 35 139 3.2 6.4 0.00 0.00 0.00 48 1016.2
20260906160830 35 99 3.2 9.7 0.00 0.00 0.00 49 1016.2
20260906160329 35 125 1.6 3.2 0.00 0.00 0.00 51 1016.1
20260906155830 34 164 1.6 8.0 0.00 0.00 0.00 52 1016.1
20260906155329 34 140 1.6 4.8 0.00 0.00 0.00 50 1016.0
20260906154829 34 108 0.0 3.2 0.00 0.00 0.00 52 1016.0
20260906154329 33 170 3.2 6.4 0.00 0.00 0.00 52 1015.9
20260906153830 33 163 3.2 6.4 0.00 0.00 0.00 54 1015.9
20260906153329 33 161 1.6 4.8 0.00 0.00 0.00 54 1015.9
20260906152829 33 118 1.6 3.2 0.00 0.00 0.00 56 1016.0
20260906152335 32 139 1.6 3.2 0.00 0.00 0.00 56 1016.0
20260906151829 32 161 3.2 8.0 0.00 0.00 0.00 58 1016.0
20260906151330 31 115 1.6 3.2 0.00 0.00 0.00 58 1016.0
20260906150829 31 150 3.2 9.7 0.00 0.00 0.00 58 1015.9
20260906150329 31 157 4.8 11.3 0.00 0.00 0.00 58 1015.9
20260906145831 31 168 1.6 4.8 0.00 0.00 0.00 58 1015.8
20260906145330 31 147 1.6 4.8 0.00 0.00 0.00 59 1015.9
20260906144829 31 127 1.6 3.2 0.00 0.00 0.00 60 1015.9
20260906144329 30 155 1.6 4.8 0.00 0.00 0.00 61 1015.9
20260906143829 30 113 1.6 3.2 0.00 0.00 0.00 61 1016.0
20260906143330 30 185 1.6 4.8 0.00 0.00 0.00 61 1015.9
20260906142830 30 130 1.6 4.8 0.00 0.00 0.00 62 1015.9
20260906142329 30 134 0.0 3.2 0.00 0.00 0.00 62 1015.9
20260906141830 30 151 1.6 4.8 0.00 0.00 0.00 64 1015.9
20260906141330 29 131 0.0 3.2 0.00 0.00 0.00 64 1015.9
20260906140829 29 74 0.0 1.6 0.00 0.00 0.00 65 1015.9
20260906140329 28 142 3.2 8.0 0.00 0.00 0.00 65 1015.9
20260906135829 28 92 0.0 3.2 0.00 0.00 0.00 67 1015.9
20260906135330 27 100 1.6 3.2 0.00 0.00 0.00 68 1015.8
20260906134829 27 113 0.0 1.6 0.00 0.00 0.00 70 1015.7
20260906134329 27 102 3.2 4.8 0.00 0.00 0.00 70 1015.7
20260906133829 27 111 1.6 3.2 0.00 0.00 0.00 72 1015.7
20260906133329 26 139 1.6 4.8 0.00 0.00 0.00 73 1015.6
20260906132830 26 77 0.0 3.2 0.00 0.00 0.00 73 1015.5
20260906132330 26 154 0.0 3.2 0.00 0.00 0.00 74 1015.5
20260906131830 26 120 0.0 1.6 0.00 0.00 0.00 75 1015.4
20260906131329 25 360 0.0 0.0 0.00 0.00 0.00 75 1015.4
20260906130829 25 360 0.0 0.0 0.00 0.00 0.00 75 1015.4
20260906130329 25 360 0.0 0.0 0.00 0.00 0.00 76 1015.3
20260906125829 25 360 0.0 0.0 0.00 0.00 0.00 76 1015.2
20260906125329 25 137 1.6 3.2 0.00 0.00 0.00 77 1015.2
20260906124829 25 111 0.0 1.6 0.00 0.00 0.00 76 1015.1
20260906124329 24 360 0.0 0.0 0.00 0.00 0.00 77 1015.1
20260906123829 24 360 0.0 0.0 0.00 0.00 0.00 78 1015.0
20260906123329 24 360 0.0 0.0 0.00 0.00 0.00 78 1015.0
20260906122829 24 360 0.0 0.0 0.00 0.00 0.00 78 1014.9
20260906122329 24 360 0.0 0.0 0.00 0.00 0.00 78 1014.9
20260906121830 23 360 0.0 0.0 0.00 0.00 0.00 79 1014.9
20260906121329 23 151 0.0 0.0 0.00 0.00 0.00 79 1014.9
20260906120829 23 162 0.0 3.2 0.00 0.00 0.00 80 1014.9
20260906120330 23 360 0.0 0.0 0.00 0.00 0.00 79 1015.0
20260906115829 23 360 0.0 0.0 0.00 0.00 0.00 80 1014.9
20260906115330 23 360 0.0 0.0 0.00 0.00 0.00 80 1015.0
20260906114831 23 360 0.0 0.0 0.00 0.00 0.00 79 1014.9
20260906114329 23 360 0.0 0.0 0.00 0.00 0.00 79 1014.9
20260906113829 23 360 0.0 0.0 0.00 0.00 0.00 79 1014.7
20260906113329 23 360 0.0 0.0 0.00 0.00 0.00 79 1014.7
20260906112829 23 360 0.0 0.0 0.00 0.00 0.00 79 1014.6
20260906112330 23 360 0.0 0.0 0.00 0.00 0.00 79 1014.6
20260906111831 23 360 0.0 0.0 0.00 0.00 0.00 79 1014.6
20260906111329 23 360 0.0 0.0 0.00 0.00 0.00 78 1014.6
20260906110830 23 360 0.0 0.0 0.00 0.00 0.00 78 1014.6
20260906110329 23 360 0.0 0.0 0.00 0.00 0.00 78 1014.5
20260906105829 24 360 0.0 0.0 0.00 0.00 0.00 78 1014.6
20260906105330 24 360 0.0 0.0 0.00 0.00 0.00 77 1014.5
20260906104829 24 360 0.0 0.0 0.00 0.00 0.00 77 1014.5
20260906104329 24 360 0.0 0.0 0.00 0.00 0.00 77 1014.5
20260906103830 24 360 0.0 0.0 0.00 0.00 0.00 76 1014.5
20260906103329 24 360 0.0 0.0 0.00 0.00 0.00 76 1014.5
20260906102829 24 360 0.0 0.0 0.00 0.00 0.00 76 1014.5
20260906102330 24 360 0.0 0.0 0.00 0.00 0.00 76 1014.4
20260906101829 24 360 0.0 0.0 0.00 0.00 0.00 77 1014.4
20260906101329 24 360 0.0 0.0 0.00 0.00 0.00 76 1014.4
20260906100830 24 360 0.0 0.0 0.00 0.00 0.00 76 1014.4
20260906100329 24 177 0.0 3.2 0.00 0.00 0.00 76 1014.3
20260906095829 24 360 0.0 0.0 0.00 0.00 0.00 76 1014.3
20260906095330 24 360 0.0 0.0 0.00 0.00 0.00 75 1014.2
20260906094829 24 360 0.0 0.0 0.00 0.00 0.00 76 1014.2
20260906094330 25 360 0.0 0.0 0.00 0.00 0.00 76 1014.2
20260906093829 25 360 0.0 0.0 0.00 0.00 0.00 75 1014.2
20260906093331 25 360 0.0 0.0 0.00 0.00 0.00 75 1014.2
20260906092830 25 360 0.0 0.0 0.00 0.00 0.00 75 1014.2
20260906092329 25 360 0.0 0.0 0.00 0.00 0.00 75 1014.1
20260906091838 25 360 0.0 0.0 0.00 0.00 0.00 75 1014.1
20260906091329 25 360 0.0 0.0 0.00 0.00 0.00 75 1014.1
20260906090831 25 360 0.0 0.0 0.00 0.00 0.00 75 1014.1
20260906090329 25 360 0.0 0.0 0.00 0.00 0.00 75 1014.1
20260906085830 25 360 0.0 0.0 0.00 0.00 0.00 75 1014.0
20260906085329 25 360 0.0 0.0 0.00 0.00 0.00 74 1014.0
20260906084829 25 360 0.0 0.0 0.00 0.00 0.00 74 1013.9
20260906084329 25 360 0.0 0.0 0.00 0.00 0.00 74 1013.9
20260906083829 25 360 0.0 0.0 0.00 0.00 0.00 74 1013.8
20260906083329 25 360 0.0 0.0 0.00 0.00 0.00 73 1013.8
20260906082829 25 360 0.0 0.0 0.00 0.00 0.00 73 1013.8
20260906082329 25 360 0.0 0.0 0.00 0.00 0.00 73 1013.8
20260906081829 25 360 0.0 0.0 0.00 0.00 0.00 72 1013.8
20260906081329 25 360 0.0 0.0 0.00 0.00 0.00 72 1013.9
20260906080829 25 360 0.0 0.0 0.00 0.00 0.00 72 1013.9
20260906080329 25 360 0.0 0.0 0.00 0.00 0.00 72 1013.8
20260906075829 25 193 0.0 3.2 0.00 0.00 0.00 72 1013.8
20260906075329 25 360 0.0 0.0 0.00 0.00 0.00 73 1013.9
20260906074829 25 360 0.0 0.0 0.00 0.00 0.00 73 1013.9
20260906074329 25 360 0.0 0.0 0.00 0.00 0.00 72 1013.9
20260906073829 26 360 0.0 0.0 0.00 0.00 0.00 72 1013.9
20260906073330 26 360 0.0 0.0 0.00 0.00 0.00 72 1013.9
20260906072829 26 360 0.0 0.0 0.00 0.00 0.00 71 1013.9
20260906072330 26 360 0.0 0.0 0.00 0.00 0.00 72 1013.9
20260906071830 26 360 0.0 0.0 0.00 0.00 0.00 72 1013.9
20260906071329 26 360 0.0 0.0 0.00 0.00 0.00 72 1013.9
20260906070829 26 360 0.0 0.0 0.00 0.00 0.00 72 1013.9
20260906070329 26 360 0.0 0.0 0.00 0.00 0.00 71 1013.9
20260906065830 26 360 0.0 0.0 0.00 0.00 0.00 71 1014.0
20260906065329 26 360 0.0 0.0 0.00 0.00 0.00 72 1014.0
20260906064829 26 360 0.0 0.0 0.00 0.00 0.00 71 1014.0
20260906064329 26 190 0.0 3.2 0.00 0.00 0.00 71 1014.1
20260906063829 26 360 0.0 0.0 0.00 0.00 0.00 72 1014.1
20260906063329 26 360 0.0 0.0 0.00 0.00 0.00 71 1014.1
20260906062830 26 360 0.0 0.0 0.00 0.00 0.00 72 1014.1
20260906062329 26 184 0.0 1.6 0.00 0.00 0.00 72 1014.1
20260906061829 26 191 0.0 0.0 0.00 0.00 0.00 72 1014.1
20260906061329 26 360 0.0 0.0 0.00 0.00 0.00 73 1014.2
20260906060829 26 360 0.0 0.0 0.00 0.00 0.00 73 1014.2
20260906060329 26 360 0.0 0.0 0.00 0.00 0.00 72 1014.2
20260906055829 26 360 0.0 0.0 0.00 0.00 0.00 72 1014.2
20260906055329 26 360 0.0 0.0 0.00 0.00 0.00 72 1014.3
20260906054830 26 360 0.0 0.0 0.00 0.00 0.00 72 1014.3
20260906054330 26 180 0.0 1.6 0.00 0.00 0.00 71 1014.4
20260906053829 26 360 0.0 0.0 0.00 0.00 0.00 71 1014.4
20260906053329 26 360 0.0 0.0 0.00 0.00 0.00 71 1014.4
20260906052830 26 360 0.0 0.0 0.00 0.00 0.00 71 1014.5
20260906052329 26 360 0.0 0.0 0.00 0.00 0.00 71 1014.4
20260906051829 26 360 0.0 0.0 0.00 0.00 0.00 71 1014.4
20260906051329 26 360 0.0 0.0 0.00 0.00 0.00 71 1014.4
20260906050829 26 360 0.0 0.0 0.00 0.00 0.00 71 1014.3
20260906050329 26 360 0.0 0.0 0.00 0.00 0.00 71 1014.3
20260906045829 26 360 0.0 0.0 0.00 0.00 0.00 71 1014.3
20260906045330 26 360 0.0 0.0 0.00 0.00 0.00 71 1014.3
20260906044829 27 360 0.0 0.0 0.00 0.00 0.00 70 1014.4
20260906044329 27 360 0.0 0.0 0.00 0.00 0.00 70 1014.3
20260906043829 27 183 0.0 3.2 0.00 0.00 0.00 70 1014.3
20260906043329 27 182 0.0 1.6 0.00 0.00 0.00 70 1014.3
20260906042830 27 173 0.0 3.2 0.00 0.00 0.00 70 1014.3
20260906042329 27 163 0.0 3.2 0.00 0.00 0.00 70 1014.3
20260906041830 27 360 0.0 0.0 0.00 0.00 0.00 70 1014.3
20260906041329 27 174 0.0 3.2 0.00 0.00 0.00 70 1014.2
20260906040829 27 360 0.0 0.0 0.00 0.00 0.00 70 1014.2
20260906040329 27 165 1.6 4.8 0.00 0.00 0.00 70 1014.2
20260906035829 27 166 0.0 4.8 0.00 0.00 0.00 70 1014.1
20260906035329 27 169 0.0 3.2 0.00 0.00 0.00 70 1014.1
20260906034829 27 360 0.0 0.0 0.00 0.00 0.00 70 1014.1
20260906034329 27 360 0.0 0.0 0.00 0.00 0.00 70 1014.1
20260906033829 27 185 0.0 3.2 0.00 0.00 0.00 69 1014.0
20260906033329 27 174 1.6 4.8 0.00 0.00 0.00 69 1014.0
20260906032830 27 173 1.6 4.8 0.00 0.00 0.00 69 1013.9
20260906032329 27 178 0.0 3.2 0.00 0.00 0.00 69 1013.9
20260906031830 27 160 3.2 4.8 0.00 0.00 0.00 69 1014.0
20260906031330 27 170 1.6 4.8 0.00 0.00 0.00 69 1013.9
20260906030829 27 195 1.6 3.2 0.00 0.00 0.00 69 1013.9
20260906030330 28 180 1.6 3.2 0.00 0.00 0.00 68 1013.9
20260906025829 28 167 0.0 3.2 0.00 0.00 0.00 68 1013.7
20260906025330 28 177 1.6 4.8 0.00 0.00 0.00 67 1013.6
20260906024829 28 173 1.6 4.8 0.00 0.00 0.00 67 1013.5
20260906024329 28 171 0.0 3.2 0.00 0.00 0.00 67 1013.5
20260906023829 28 360 0.0 0.0 0.00 0.00 0.00 66 1013.4
20260906023329 28 360 0.0 0.0 0.00 0.00 0.00 66 1013.3
20260906022829 28 167 0.0 4.8 0.00 0.00 0.00 65 1013.3
20260906022329 28 162 0.0 4.8 0.00 0.00 0.00 65 1013.2
20260906021829 28 360 0.0 0.0 0.00 0.00 0.00 65 1013.2
20260906021329 29 168 0.0 0.0 0.00 0.00 0.00 64 1013.2
20260906020831 29 360 0.0 0.0 0.00 0.00 0.00 63 1013.1
20260906020329 29 360 0.0 0.0 0.00 0.00 0.00 63 1013.0
20260906015830 29 165 0.0 4.8 0.00 0.00 0.00 62 1013.0
20260906015329 30 360 0.0 0.0 0.00 0.00 0.00 60 1013.0
20260906014829 30 360 0.0 0.0 0.00 0.00 0.00 60 1012.9
20260906014330 30 360 0.0 0.0 0.00 0.00 0.00 59 1012.7
20260906013829 30 176 0.0 3.2 0.00 0.00 0.00 58 1012.7
20260906013331 30 360 0.0 0.0 0.00 0.00 0.00 57 1012.7
20260906012829 30 168 0.0 1.6 0.00 0.00 0.00 56 1012.6
20260906012329 31 360 0.0 0.0 0.00 0.00 0.00 55 1012.5
20260906011830 31 191 0.0 3.2 0.00 0.00 0.00 54 1012.5
20260906011329 31 182 3.2 3.2 0.00 0.00 0.00 54 1012.5
20260906010830 31 196 0.0 3.2 0.00 0.00 0.00 53 1012.5
20260906010329 31 194 0.0 3.2 0.00 0.00 0.00 52 1012.5
20260906005829 31 192 3.2 4.8 0.00 0.00 0.00 52 1012.4
20260906004845 32 192 3.2 4.8 0.00 0.00 0.00 51 1012.4
20260906004329 32 207 0.0 3.2 0.00 0.00 0.00 51 1012.4
20260906003829 32 218 1.6 3.2 0.00 0.00 0.00 51 1012.3
20260906003330 33 174 3.2 4.8 0.00 0.00 0.00 50 1012.3
20260906002829 33 167 0.0 0.0 0.00 0.00 0.00 47 1012.3
20260906002329 33 175 1.6 3.2 0.00 0.00 0.00 46 1012.3
20260906001829 34 360 0.0 0.0 0.00 0.00 0.00 45 1012.3
20260906001329 34 360 0.0 0.0 0.00 0.00 0.00 45 1012.3
20260906000829 35 227 0.0 3.2 0.00 0.00 0.00 44 1012.3
20260906000329 35 212 3.2 4.8 0.00 0.00 0.00 43 1012.3
20260905235829 36 190 3.2 6.4 0.00 0.00 0.00 41 1012.4
20260905235330 36 216 3.2 4.8 0.00 0.00 0.00 40 1012.4
20260905234829 37 180 3.2 4.8 0.00 0.00 0.00 40 1012.4
20260905234329 37 217 3.2 4.8 0.00 0.00 0.00 39 1012.4
20260905233829 38 216 3.2 4.8 0.00 0.00 0.00 37 1012.4
20260905233329 38 226 4.8 6.4 0.00 0.00 0.00 36 1012.4
20260905232829 38 238 3.2 9.7 0.00 0.00 0.00 35 1012.3
20260905232329 38 226 4.8 6.4 0.00 0.00 0.00 35 1012.3
20260905231829 38 210 4.8 6.4 0.00 0.00 0.00 36 1012.3
20260905231329 38 216 3.2 4.8 0.00 0.00 0.00 35 1012.3
20260905230829 38 218 4.8 8.0 0.00 0.00 0.00 36 1012.3
20260905230329 38 233 3.2 9.7 0.00 0.00 0.00 36 1012.3
20260905225829 39 192 3.2 4.8 0.00 0.00 0.00 33 1012.3
20260905225329 38 220 4.8 9.7 0.00 0.00 0.00 36 1012.3
20260905224831 38 273 3.2 8.0 0.00 0.00 0.00 36 1012.3
20260905224330 38 300 4.8 8.0 0.00 0.00 0.00 35 1012.3
20260905223829 38 286 4.8 6.4 0.00 0.00 0.00 34 1012.4
20260905223329 38 268 3.2 8.0 0.00 0.00 0.00 36 1012.4
20260905222829 38 219 6.4 8.0 0.00 0.00 0.00 36 1012.5
20260905222329 37 210 3.2 6.4 0.00 0.00 0.00 37 1012.5
20260905221830 37 185 1.6 4.8 0.00 0.00 0.00 36 1012.5
20260905221330 37 201 1.6 6.4 0.00 0.00 0.00 36 1012.5
20260905220829 37 199 4.8 8.0 0.00 0.00 0.00 37 1012.5
20260905220329 38 175 4.8 6.4 0.00 0.00 0.00 36 1012.6
20260905215830 38 185 6.4 9.7 0.00 0.00 0.00 35 1012.6
20260905215329 38 151 3.2 4.8 0.00 0.00 0.00 35 1012.6
20260905214829 38 139 8.0 20.9 0.00 0.00 0.00 33 1012.6
20260905214329 38 147 9.7 14.5 0.00 0.00 0.00 35 1012.7
20260905213829 38 143 8.0 12.9 0.00 0.00 0.00 35 1012.7
20260905213329 38 145 9.7 14.5 0.00 0.00 0.00 34 1012.7
20260905212830 38 147 9.7 12.9 0.00 0.00 0.00 35 1012.8
20260905212329 38 153 9.7 20.9 0.00 0.00 0.00 34 1012.8
20260905211830 38 226 6.4 12.9 0.00 0.00 0.00 34 1012.9
20260905211330 38 146 4.8 11.3 0.00 0.00 0.00 35 1012.9
20260905210829 38 351 4.8 11.3 0.00 0.00 0.00 34 1013.0
20260905210329 37 273 4.8 8.0 0.00 0.00 0.00 35 1013.1
20260905205829 37 184 4.8 6.4 0.00 0.00 0.00 36 1013.1
20260905205330 37 186 3.2 6.4 0.00 0.00 0.00 35 1013.2
20260905204829 37 183 6.4 8.0 0.00 0.00 0.00 36 1013.2
20260905204330 38 146 3.2 9.7 0.00 0.00 0.00 36 1013.3
20260905203829 38 99 1.6 4.8 0.00 0.00 0.00 36 1013.3
20260905203329 38 350 6.4 16.1 0.00 0.00 0.00 35 1013.4
20260905202832 38 152 4.8 14.5 0.00 0.00 0.00 34 1013.5
20260905202330 38 319 8.0 16.1 0.00 0.00 0.00 36 1013.6
20260905201829 38 317 8.0 14.5 0.00 0.00 0.00 35 1013.6
20260905201329 38 281 4.8 11.3 0.00 0.00 0.00 34 1013.7
20260905200829 38 311 6.4 12.9 0.00 0.00 0.00 35 1013.7
20260905200333 38 308 3.2 8.0 0.00 0.00 0.00 35 1013.7
20260905195829 37 177 4.8 9.7 0.00 0.00 0.00 34 1013.8
20260905195330 37 121 3.2 8.0 0.00 0.00 0.00 37 1013.9
20260905194829 37 138 3.2 8.0 0.00 0.00 0.00 37 1013.9
20260905194329 37 154 1.6 4.8 0.00 0.00 0.00 37 1014.0
20260905193829 37 190 1.6 4.8 0.00 0.00 0.00 37 1014.1
20260905193331 37 321 4.8 6.4 0.00 0.00 0.00 38 1014.1
20260905192830 37 149 3.2 4.8 0.00 0.00 0.00 37 1014.1
20260905192329 38 131 3.2 4.8 0.00 0.00 0.00 36 1014.2
20260905191829 37 56 3.2 4.8 0.00 0.00 0.00 35 1014.2
20260905191329 37 130 3.2 6.4 0.00 0.00 0.00 35 1014.3
20260905190829 37 129 3.2 4.8 0.00 0.00 0.00 38 1014.3
20260905190329 37 108 4.8 6.4 0.00 0.00 0.00 35 1014.3
20260905185829 37 122 3.2 6.4 0.00 0.00 0.00 37 1014.4
20260905185329 37 135 4.8 17.7 0.00 0.00 0.00 37 1014.5
20260905184829 37 117 4.8 6.4 0.00 0.00 0.00 37 1014.6
20260905184329 37 125 3.2 4.8 0.00 0.00 0.00 38 1014.6
20260905183829 37 114 3.2 6.4 0.00 0.00 0.00 38 1014.7
20260905183329 37 128 4.8 11.3 0.00 0.00 0.00 38 1014.9
20260905182829 36 137 3.2 6.4 0.00 0.00 0.00 38 1014.9
20260905182330 36 132 3.2 4.8 0.00 0.00 0.00 38 1014.9
20260905181829 36 124 4.8 6.4 0.00 0.00 0.00 39 1015.0